Regional Weather Roundup
Issued by NWS State College, PA

Home | Current Version | Previous Version | Graphics & Text | Print | Product List | Glossary On
Versions: 1 2 3 4 5 6 7 8 9 10 11 12 13 14 15 16 17 18 19 20 21 22 23 24 25 26 27 28 29 30 31 32 33 34 35 36 37 38 39 40 41 42 43 44 45 46 47 48 49 50
411
ASUS41 KCTP 241310
RWRCTP

REGIONAL WEATHER ROUNDUP
NATIONAL WEATHER SERVICE STATE COLLEGE PA
900 AM EDT TUE MAY 24 2016

Note: "fair" indicates few or no clouds below 12,000 feet with no
significant weather and/or obstructions to visibility.

* = STATION THAT DOES NOT REPORT PRECIPITATION /E.G. RAIN...SNOW...ETC/
    THUNDER OR FOG.

PAZ002>004-007>009-013>016-020>023-029>032-241400-
WESTERN PENNSYLVANIA

CITY           SKY/WX    TMP DP  RH WIND       PRES   REMARKS
ERIE           SUNNY     66  47  50 SW6       30.06R
MEADVILLE      SUNNY     60  47  61 VRB3      30.08R
FRANKLIN*      SUNNY     64  46  52 SW3       30.10S
NEW CASTLE     FAIR      59  52  77 CALM      30.10R
BEAVER COUNTY  NOT AVBL
BUTLER*        SUNNY     61  50  67 W6        30.13R
PITTSBURGH INT SUNNY     61  51  70 SE3       30.09R
PITTSBURGH     SUNNY     61  51  70 S3        30.09R
INDIANA*       SUNNY     59  55  88 SW5       30.12S
LATROBE        SUNNY     59  55  88 SW12      30.11R
WASHINGTON CO* SUNNY     61  54  77 S5        30.11R
$$

PAZ004>006-010>012-017>019-024>028-033>037-041-042-045-046-049>053-241400-
CENTRAL PENNSYLVANIA

CITY           SKY/WX    TMP DP  RH WIND       PRES   REMARKS
BRADFORD       SUNNY     65  43  44 N8        30.07R
DUBOIS         SUNNY     60  48  64 W3        30.06R
CLEARFIELD     SUNNY     57  50  77 S6        30.06R
JOHNSTOWN      SUNNY     60  45  57 W5        30.09R
ALTOONA        SUNNY     63  48  58 W7        30.07R
STATE COLLEGE  SUNNY     63  52  67 S5        30.04R
WILLIAMSPORT   SUNNY     64  49  57 W10       29.98R
SELINSGROVE    SUNNY     63  55  75 CALM      29.99R
FT INDIANTOWN  NOT AVBL
CAPITAL CITY   SUNNY     68  52  56 W8        29.99R
HARRISBURG     MOSUNNY   67  53  61 NW12      29.98R
YORK           SUNNY     67  54  63 W5        29.99R
$$

PAZ038>040-043-044-047-048-054-055-060>062-067>071-241400-
EASTERN PENNSYLVANIA

CITY           SKY/WX    TMP DP  RH WIND       PRES   REMARKS
SCRANTON       MOSUNNY   65  46  50 NW7       29.96R
MOUNT POCONO   MOSUNNY   55  44  66 NW9       29.97R
ALLENTOWN      MOSUNNY   64  55  72 W5        29.95R
QUAKERTOWN*    MOSUNNY   64  55  72 CALM      29.96R
READING        MOSUNNY   66  51  58 CALM      29.95R
LANCASTER      MOSUNNY   66  52  60 W9        29.97R
COATESVILLE      N/A    N/A N/A N/A MISG        N/A
POTTSTOWN      CLOUDY    61  57  87 W5        29.97R
BLUE BELL      SUNNY     63  57  82 CALM      29.94R
DOYLESTOWN     PTSUNNY   62  57  83 VRB3      29.94R
WILLOW GROVE   NOT AVBL
NORTH PHILA    MOSUNNY   64  58  80 CALM      29.96R
PHILADELPHIA   CLOUDY    63  55  75 W5        29.94S
$$




USA.gov is the U.S. government's official web portal to all federal, state and local government web resources and services.